Location: Unspecified
(58.9933°N, 5.6375°E)
Time: 15:28:40
(UTC+01:00)

CZ-3 Stage 3 - Visible Passes

Search period start: 28 November 2014 00:00
Search period end: 08 December 2014 00:00
Orbit: 426 x 34807 km, 31.0° (Epoch: 26 November)

Date Brightness Start Highest point End Pass type
(mag) Time Alt. Az. Time Alt. Az. Time Alt. Az.
28 Nov 6.7 05:29:33 22° WSW 05:58:21 28° SW 06:12:07 10° S visible
28 Nov 7.3 19:44:12 10° SSE 02:08:45 43° S 02:39:50 10° ESE visible
29 Nov 8.0 18:32:52 10° ESE 22:38:33 25° ESE 22:58:53 10° E visible
30 Nov 6.7 23:46:20 10° SW 05:53:33 27° SW 06:07:28 10° S visible
01 Dec 7.3 19:31:33 10° SSE 02:04:16 44° S 02:35:25 10° ESE visible
02 Dec 7.9 18:16:49 10° ESE 22:38:43 24° ESE 22:54:52 10° E visible
03 Dec 6.7 23:35:49 10° SW 05:48:38 27° SW 06:02:45 10° S visible
04 Dec 7.2 19:19:14 10° SSE 02:04:02 44° S 02:30:55 10° ESE visible
05 Dec 7.9 18:00:54 10° ESE 22:38:19 23° ESE 22:50:45 10° E visible
06 Dec 6.6 23:25:38 10° SW 05:43:38 26° SW 05:57:56 10° S visible
07 Dec 10.1 19:07:13 10° SSE 00:00:00 35° SSW 00:00:00 35° SSW visible
